This is the latest recevied weather packets stored in our database for station/object W4OTS. If no packets are shown the sender has not sent any weather packets the latest 10 day(s).
| Time | Temp. | Humidity | Pressure | Rain* | Wind** | Luminosity | Snow |
|---|---|---|---|---|---|---|---|
| 1778183933 | 21.67° C | 84% | 1009.6 hPa | 0 mm | - | 42 W/m² | - |
| 1778183631 | 21.67° C | 86% | 1009.5 hPa | 0 mm | - | 41 W/m² | - |
| 1778183328 | 21.67° C | 88% | 1009.5 hPa | 0 mm | - | 47 W/m² | - |
| 1778183024 | 21.11° C | 87% | 1009.7 hPa | 0 mm | - | 46 W/m² | - |
| 1778182721 | 21.11° C | 91% | 1009.8 hPa | 0 mm | - | 47 W/m² | - |
| 1778182418 | 21.11° C | 92% | 1010 hPa | 0 mm | - | 45 W/m² | - |
| 1778182114 | 20.56° C | 90% | 1009.9 hPa | 0 mm | - | 48 W/m² | - |
| 1778181810 | 20.56° C | 91% | 1010 hPa | 0 mm | - | 52 W/m² | - |
| 1778181507 | 21.11° C | 94% | 1010.1 hPa | 0 mm | - | 144 W/m² | - |
| 1778181203 | 20.56° C | 98% | 1010.1 hPa | 0 mm | - | 187 W/m² | - |
| 1778180900 | 20° C | 96% | 1009.8 hPa | 0 mm | - | 181 W/m² | - |
| 1778180599 | 20° C | 95% | 1009.9 hPa | 1.27 mm | - | 140 W/m² | - |
| 1778180297 | 20° C | 93% | 1010.1 hPa | 3.05 mm | - | 94 W/m² | - |
| 1778179994 | 20.56° C | 94% | 1010.1 hPa | 3.05 mm | - | 88 W/m² | - |
| 1778179691 | 21.11° C | 90% | 1010.3 hPa | 3.05 mm | - | 69 W/m² | - |
| 1778179389 | 22.22° C | 81% | 1009.9 hPa | 0 mm | - | 35 W/m² | - |
| 1778179085 | 22.78° C | 82% | 1009.8 hPa | 0 mm | - | 68 W/m² | - |
| 1778178783 | 22.78° C | 79% | 1010 hPa | 0 mm | - | 148 W/m² | - |
| 1778178479 | 22.78° C | 81% | 1010.3 hPa | 0 mm | - | 150 W/m² | - |
| 1778178175 | 22.78° C | 82% | 1010.4 hPa | 0 mm | - | 166 W/m² | - |
| 1778177872 | 23.33° C | 80% | 1010.3 hPa | 0 mm | - | 178 W/m² | - |
| 1778177567 | 22.78° C | 83% | 1010.3 hPa | 0 mm | - | 287 W/m² | - |
| 1778177264 | 22.78° C | 83% | 1010.4 hPa | 0 mm | - | 349 W/m² | - |
| 1778176962 | 23.33° C | 82% | 1010.1 hPa | 0 mm | - | 509 W/m² | - |
| 1778176657 | 23.33° C | 83% | 1010.3 hPa | 0 mm | - | 568 W/m² | - |
* Rain latest hour (hover to see other rain measurements)
** Current wind speed in m/s (hover to see current wind gust speed)